IRIDIUM 47 [-]

Last updated on Aug. 28, 2018, 2:42 p.m. UTC

1 25106U 97082C   18240.47101891  .03939358 -17294-5  89627-3 0  9990
2 25106  86.4049  71.7516 0214385 148.4609 212.9941 15.91622043 83180

Satellite is not in orbit.